Time,TemperatureF,DewpointF,PressureIn,WindDirection,WindDirectionDegrees,WindSpeedMPH,WindSpeedGustMPH,Humidity,HourlyPrecipIn,Conditions,Clouds,dailyrainin,SoftwareType,DateUTC
2013-06-24 00:00:00,68.2,64.8,29.96,East,92,0.0,0.0,89,0.00,,,0.00,Wunderground v.1.15,2013-06-24 04:00:00,
2013-06-24 00:05:00,68.1,64.7,29.96,East,92,0.0,0.0,89,0.00,,,0.00,Wunderground v.1.15,2013-06-24 04:05:00,
2013-06-24 00:09:00,68.1,64.7,29.96,SSE,160,0.0,0.0,89,0.00,,,0.00,Wunderground v.1.15,2013-06-24 04:09:00,
2013-06-24 00:15:00,68.7,65.6,29.97,SSW,192,0.0,0.0,90,0.00,,,0.00,Wunderground v.1.15,2013-06-24 04:15:00,
2013-06-24 00:20:00,69.1,66.0,29.98,SSW,194,0.0,4.0,90,0.00,,,0.00,Wunderground v.1.15,2013-06-24 04:20:00,
2013-06-24 00:24:00,69.4,66.0,29.98,SSW,205,2.0,5.0,89,0.00,,,0.00,Wunderground v.1.15,2013-06-24 04:24:00,
2013-06-24 00:30:00,70.1,65.7,29.98,SSW,199,5.0,9.0,86,0.00,,,0.00,Wunderground v.1.15,2013-06-24 04:30:00,
2013-06-24 00:39:00,71.0,65.9,29.98,SSW,192,6.0,7.0,84,0.00,,,0.00,Wunderground v.1.15,2013-06-24 04:39:00,
2013-06-24 00:45:00,71.2,66.1,29.98,SSW,197,6.0,8.0,84,0.00,,,0.00,Wunderground v.1.15,2013-06-24 04:45:00,
2013-06-24 00:55:00,71.4,66.0,29.99,SSW,202,7.0,8.0,83,0.00,,,0.00,Wunderground v.1.15,2013-06-24 04:55:00,
2013-06-24 01:00:00,71.5,66.1,29.99,SW,218,7.0,7.0,83,0.00,,,0.00,Wunderground v.1.15,2013-06-24 05:00:00,
2013-06-24 01:10:00,71.6,65.8,29.99,WSW,238,8.0,10.0,82,0.00,,,0.00,Wunderground v.1.15,2013-06-24 05:10:00,
2013-06-24 01:20:00,71.3,65.9,29.99,SW,234,7.0,7.0,83,0.00,,,0.00,Wunderground v.1.15,2013-06-24 05:20:00,
2013-06-24 01:30:00,71.0,65.9,30.00,WSW,242,8.0,17.0,84,0.00,,,0.00,Wunderground v.1.15,2013-06-24 05:30:00,
2013-06-24 01:39:00,70.8,65.7,30.00,SW,228,8.0,8.0,84,0.00,,,0.00,Wunderground v.1.15,2013-06-24 05:39:00,
2013-06-24 01:45:00,70.7,66.0,30.00,WSW,240,6.0,8.0,85,0.00,,,0.00,Wunderground v.1.15,2013-06-24 05:45:00,
2013-06-24 01:55:00,70.5,65.8,30.00,SW,228,5.0,6.0,85,0.00,,,0.00,Wunderground v.1.15,2013-06-24 05:55:00,
2013-06-24 02:04:00,70.2,65.5,30.00,SW,233,4.0,4.0,85,0.00,,,0.00,Wunderground v.1.15,2013-06-24 06:04:00,
2013-06-24 02:09:00,70.1,65.7,30.00,WSW,240,3.0,3.0,86,0.00,,,0.00,Wunderground v.1.15,2013-06-24 06:09:00,
2013-06-24 02:15:00,69.9,65.5,30.00,WSW,244,3.0,3.0,86,0.00,,,0.00,Wunderground v.1.15,2013-06-24 06:15:00,
2013-06-24 02:24:00,69.5,65.5,30.01,WSW,242,3.0,3.0,87,0.00,,,0.00,Wunderground v.1.15,2013-06-24 06:24:00,
2013-06-24 02:30:00,69.3,65.3,30.01,SW,234,2.0,2.0,87,0.00,,,0.00,Wunderground v.1.15,2013-06-24 06:30:00,
2013-06-24 02:39:00,69.1,65.1,30.01,SW,230,2.0,2.0,87,0.00,,,0.00,Wunderground v.1.15,2013-06-24 06:39:00,
2013-06-24 02:45:00,69.1,65.4,30.01,WSW,245,2.0,2.0,88,0.00,,,0.00,Wunderground v.1.15,2013-06-24 06:45:00,
2013-06-24 02:55:00,69.0,65.3,30.01,SW,235,2.0,2.0,88,0.00,,,0.00,Wunderground v.1.15,2013-06-24 06:55:00,
2013-06-24 03:05:00,69.0,65.3,30.02,SSW,213,3.0,3.0,88,0.00,,,0.00,Wunderground v.1.15,2013-06-24 07:05:00,
2013-06-24 03:14:00,69.0,65.3,30.02,SW,223,3.0,3.0,88,0.00,,,0.00,Wunderground v.1.15,2013-06-24 07:14:00,
2013-06-24 03:20:00,69.0,65.3,30.02,SW,225,2.0,3.0,88,0.00,,,0.00,Wunderground v.1.15,2013-06-24 07:20:00,
2013-06-24 03:30:00,68.7,65.3,30.02,SW,226,2.0,2.0,89,0.00,,,0.00,Wunderground v.1.15,2013-06-24 07:30:00,
2013-06-24 03:40:00,68.4,65.0,30.02,SW,228,2.0,3.0,89,0.00,,,0.00,Wunderground v.1.15,2013-06-24 07:40:00,
2013-06-24 03:49:00,68.3,65.3,30.02,SW,223,2.0,2.0,90,0.00,,,0.00,Wunderground v.1.15,2013-06-24 07:49:00,
2013-06-24 03:55:00,68.4,65.4,30.02,SW,231,2.0,3.0,90,0.00,,,0.00,Wunderground v.1.15,2013-06-24 07:55:00,
2013-06-24 04:00:00,68.6,65.2,30.01,SW,225,3.0,4.0,89,0.00,,,0.00,Wunderground v.1.15,2013-06-24 08:00:00,
2013-06-24 04:05:00,68.8,65.4,30.01,SW,221,3.0,4.0,89,0.00,,,0.00,Wunderground v.1.15,2013-06-24 08:05:00,
2013-06-24 04:15:00,69.1,65.7,30.01,SW,232,3.0,4.0,89,0.00,,,0.00,Wunderground v.1.15,2013-06-24 08:15:00,
2013-06-24 04:20:00,69.2,65.5,30.01,SW,228,3.0,5.0,88,0.00,,,0.00,Wunderground v.1.15,2013-06-24 08:20:00,
2013-06-24 04:30:00,69.5,65.8,30.01,SW,219,4.0,5.0,88,0.00,,,0.00,Wunderground v.1.15,2013-06-24 08:30:00,
2013-06-24 04:39:00,69.4,65.4,30.02,SW,224,3.0,3.0,87,0.00,,,0.00,Wunderground v.1.15,2013-06-24 08:39:00,
2013-06-24 04:44:00,69.5,65.8,30.02,SW,227,4.0,4.0,88,0.00,,,0.00,Wunderground v.1.15,2013-06-24 08:44:00,
2013-06-24 04:50:00,69.5,65.5,30.02,SW,235,4.0,6.0,87,0.00,,,0.00,Wunderground v.1.15,2013-06-24 08:50:00,
2013-06-24 04:55:00,69.5,65.5,30.02,SW,231,4.0,8.0,87,0.00,,,0.00,Wunderground v.1.15,2013-06-24 08:55:00,
2013-06-24 05:04:00,69.3,65.3,30.01,SW,230,4.0,5.0,87,0.00,,,0.00,Wunderground v.1.15,2013-06-24 09:04:00,
2013-06-24 05:10:00,69.1,65.4,30.01,SW,223,4.0,4.0,88,0.00,,,0.00,Wunderground v.1.15,2013-06-24 09:10:00,
2013-06-24 05:15:00,69.0,65.3,30.01,SW,224,3.0,4.0,88,0.00,,,0.00,Wunderground v.1.15,2013-06-24 09:15:00,
2013-06-24 05:24:00,68.8,65.1,30.01,SSW,211,3.0,3.0,88,0.00,,,0.00,Wunderground v.1.15,2013-06-24 09:24:00,
2013-06-24 05:30:00,68.9,65.5,30.01,SSW,207,3.0,3.0,89,0.00,,,0.00,Wunderground v.1.15,2013-06-24 09:30:00,
2013-06-24 05:40:00,68.9,65.2,30.01,SSW,201,2.0,3.0,88,0.00,,,0.00,Wunderground v.1.15,2013-06-24 09:40:00,
2013-06-24 05:50:00,69.0,65.3,30.01,SSW,198,3.0,3.0,88,0.00,,,0.00,Wunderground v.1.15,2013-06-24 09:50:00,
2013-06-24 06:00:00,68.9,65.2,30.01,SSW,199,2.0,3.0,88,0.00,,,0.00,Wunderground v.1.15,2013-06-24 10:00:00,
2013-06-24 06:10:00,68.5,64.5,30.01,South,173,1.0,1.0,87,0.00,,,0.00,Wunderground v.1.15,2013-06-24 10:10:00,
2013-06-24 06:19:00,68.2,64.8,30.01,SSW,194,1.0,1.0,89,0.00,,,0.00,Wunderground v.1.15,2013-06-24 10:19:00,
2013-06-24 06:25:00,68.2,64.8,30.01,SSW,194,1.0,1.0,89,0.00,,,0.00,Wunderground v.1.15,2013-06-24 10:25:00,
2013-06-24 06:35:00,68.6,65.2,30.02,SSW,194,2.0,2.0,89,0.00,,,0.00,Wunderground v.1.15,2013-06-24 10:35:00,
2013-06-24 06:44:00,68.7,65.3,30.02,SSW,193,2.0,3.0,89,0.00,,,0.00,Wunderground v.1.15,2013-06-24 10:44:00,
2013-06-24 06:50:00,68.8,65.4,30.02,SSW,192,2.0,2.0,89,0.00,,,0.00,Wunderground v.1.15,2013-06-24 10:50:00,
2013-06-24 07:00:00,69.1,65.7,30.02,SSW,194,2.0,3.0,89,0.00,,,0.00,Wunderground v.1.15,2013-06-24 11:00:00,
2013-06-24 07:09:00,69.5,66.1,30.02,SSW,192,3.0,3.0,89,0.00,,,0.00,Wunderground v.1.15,2013-06-24 11:09:00,
2013-06-24 07:20:00,70.2,66.8,30.02,SSW,200,3.0,4.0,89,0.00,,,0.00,Wunderground v.1.15,2013-06-24 11:20:00,
2013-06-24 07:25:00,70.4,67.0,30.02,SSW,202,3.0,4.0,89,0.00,,,0.00,Wunderground v.1.15,2013-06-24 11:25:00,
2013-06-24 07:35:00,71.1,67.4,30.02,SSW,195,5.0,7.0,88,0.00,,,0.00,Wunderground v.1.15,2013-06-24 11:35:00,
2013-06-24 07:45:00,71.5,67.1,30.02,SSW,194,5.0,5.0,86,0.00,,,0.00,Wunderground v.1.15,2013-06-24 11:45:00,
2013-06-24 07:55:00,72.1,67.7,30.02,South,187,5.0,7.0,86,0.00,,,0.00,Wunderground v.1.15,2013-06-24 11:55:00,
2013-06-24 08:05:00,72.6,67.8,30.02,SSW,209,5.0,5.0,85,0.00,,,0.00,Wunderground v.1.15,2013-06-24 12:05:00,
2013-06-24 08:15:00,73.1,68.3,30.03,SSW,195,5.0,6.0,85,0.00,,,0.00,Wunderground v.1.15,2013-06-24 12:15:00,
2013-06-24 08:20:00,73.3,68.2,30.03,SSW,211,5.0,5.0,84,0.00,,,0.00,Wunderground v.1.15,2013-06-24 12:20:00,
2013-06-24 08:30:00,73.8,68.3,30.03,SSW,213,5.0,5.0,83,0.00,,,0.00,Wunderground v.1.15,2013-06-24 12:30:00,
2013-06-24 08:40:00,74.7,69.9,30.03,SW,220,4.0,4.0,85,0.00,,,0.00,Wunderground v.1.15,2013-06-24 12:40:00,
2013-06-24 08:50:00,75.3,69.4,30.03,SW,228,5.0,5.0,82,0.00,,,0.00,Wunderground v.1.15,2013-06-24 12:50:00,
2013-06-24 09:00:00,75.9,69.6,30.03,SSW,208,5.0,5.0,81,0.00,,,0.00,Wunderground v.1.15,2013-06-24 13:00:00,
2013-06-24 09:10:00,76.7,70.8,30.04,WSW,238,5.0,5.0,82,0.00,,,0.00,Wunderground v.1.15,2013-06-24 13:10:00,
2013-06-24 09:20:00,77.2,70.9,30.03,SSW,213,5.0,5.0,81,0.00,,,0.00,Wunderground v.1.15,2013-06-24 13:20:00,
2013-06-24 09:29:00,77.9,70.5,30.04,WSW,238,5.0,7.0,78,0.00,,,0.00,Wunderground v.1.15,2013-06-24 13:29:00,
2013-06-24 09:34:00,78.2,71.2,30.04,WSW,245,6.0,7.0,79,0.00,,,0.00,Wunderground v.1.15,2013-06-24 13:34:00,
2013-06-24 09:40:00,78.3,70.1,30.04,SW,217,7.0,7.0,76,0.00,,,0.00,Wunderground v.1.15,2013-06-24 13:40:00,
2013-06-24 09:45:00,78.5,71.1,30.05,SW,217,7.0,7.0,78,0.00,,,0.00,Wunderground v.1.15,2013-06-24 13:45:00,
2013-06-24 09:55:00,78.8,70.2,30.04,SW,223,7.0,10.0,75,0.00,,,0.00,Wunderground v.1.15,2013-06-24 13:55:00,
2013-06-24 10:04:00,78.9,70.3,30.04,WSW,248,8.0,8.0,75,0.00,,,0.00,Wunderground v.1.15,2013-06-24 14:04:00,
2013-06-24 10:10:00,79.0,70.8,30.04,WSW,245,9.0,11.0,76,0.00,,,0.00,Wunderground v.1.15,2013-06-24 14:10:00,
2013-06-24 10:20:00,79.5,70.9,30.03,SW,219,8.0,8.0,75,0.00,,,0.00,Wunderground v.1.15,2013-06-24 14:20:00,
2013-06-24 10:25:00,79.7,71.1,30.03,West,261,8.0,12.0,75,0.00,,,0.00,Wunderground v.1.15,2013-06-24 14:25:00,
2013-06-24 10:34:00,80.1,71.1,30.03,SSW,213,9.0,11.0,74,0.00,,,0.00,Wunderground v.1.15,2013-06-24 14:34:00,
2013-06-24 10:40:00,80.3,70.9,30.03,SW,229,9.0,10.0,73,0.00,,,0.00,Wunderground v.1.15,2013-06-24 14:40:00,
2013-06-24 10:45:00,80.5,70.6,30.03,WSW,241,9.0,10.0,72,0.00,,,0.00,Wunderground v.1.15,2013-06-24 14:45:00,
2013-06-24 10:55:00,80.9,71.4,30.02,SW,220,9.0,11.0,73,0.00,,,0.00,Wunderground v.1.15,2013-06-24 14:55:00,
2013-06-24 11:05:00,81.6,71.7,30.02,SW,232,7.0,9.0,72,0.00,,,0.00,Wunderground v.1.15,2013-06-24 15:05:00,
2013-06-24 11:15:00,81.6,72.9,30.02,WSW,257,9.0,13.0,75,0.00,,,0.00,Wunderground v.1.15,2013-06-24 15:15:00,
2013-06-24 11:24:00,82.1,72.2,30.02,SW,223,8.0,13.0,72,0.00,,,0.00,Wunderground v.1.15,2013-06-24 15:24:00,
2013-06-24 11:29:00,82.1,71.8,30.03,WSW,246,8.0,9.0,71,0.00,,,0.00,Wunderground v.1.15,2013-06-24 15:29:00,
2013-06-24 11:35:00,82.0,72.5,30.02,WSW,246,9.0,10.0,73,0.00,,,0.00,Wunderground v.1.15,2013-06-24 15:35:00,
2013-06-24 11:45:00,82.4,72.9,30.02,WSW,252,8.0,13.0,73,0.00,,,0.00,Wunderground v.1.15,2013-06-24 15:45:00,
2013-06-24 11:50:00,82.9,73.8,30.02,WSW,251,7.0,10.0,74,0.00,,,0.00,Wunderground v.1.15,2013-06-24 15:50:00,
2013-06-24 12:00:00,82.9,72.1,30.02,WSW,238,8.0,8.0,70,0.00,,,0.00,Wunderground v.1.15,2013-06-24 16:00:00,
2013-06-24 12:10:00,83.0,72.6,30.02,WSW,245,8.0,8.0,71,0.00,,,0.00,Wunderground v.1.15,2013-06-24 16:10:00,
2013-06-24 12:20:00,83.4,72.6,30.01,SW,223,8.0,8.0,70,0.00,,,0.00,Wunderground v.1.15,2013-06-24 16:20:00,
2013-06-24 12:30:00,83.7,72.4,30.01,SW,229,9.0,12.0,69,0.00,,,0.00,Wunderground v.1.15,2013-06-24 16:30:00,
2013-06-24 12:40:00,83.8,71.7,30.01,SW,229,10.0,10.0,67,0.00,,,0.00,Wunderground v.1.15,2013-06-24 16:40:00,
2013-06-24 12:50:00,84.1,71.5,30.01,SW,224,9.0,9.0,66,0.00,,,0.00,Wunderground v.1.15,2013-06-24 16:50:00,
2013-06-24 13:00:00,84.2,72.0,30.01,SSW,200,8.0,8.0,67,0.00,,,0.00,Wunderground v.1.15,2013-06-24 17:00:00,
2013-06-24 13:14:00,83.8,72.1,30.00,SW,223,8.0,10.0,68,0.00,,,0.00,Wunderground v.1.15,2013-06-24 17:14:00,
2013-06-24 13:20:00,84.1,72.4,30.00,WSW,244,7.0,13.0,68,0.00,,,0.00,Wunderground v.1.15,2013-06-24 17:20:00,
2013-06-24 13:29:00,84.7,72.5,30.00,WSW,242,9.0,9.0,67,0.00,,,0.00,Wunderground v.1.15,2013-06-24 17:29:00,
2013-06-24 13:35:00,85.0,71.9,29.99,WSW,246,9.0,9.0,65,0.00,,,0.00,Wunderground v.1.15,2013-06-24 17:35:00,
2013-06-24 13:45:00,85.0,73.3,29.99,WSW,249,8.0,11.0,68,0.00,,,0.00,Wunderground v.1.15,2013-06-24 17:45:00,
2013-06-24 13:50:00,84.7,72.1,29.99,SW,234,7.0,7.0,66,0.00,,,0.00,Wunderground v.1.15,2013-06-24 17:50:00,
2013-06-24 13:55:00,84.0,71.4,29.98,West,276,8.0,11.0,66,0.00,,,0.00,Wunderground v.1.15,2013-06-24 17:55:00,
2013-06-24 14:04:00,82.9,71.7,29.97,WSW,244,9.0,13.0,69,0.00,,,0.00,Wunderground v.1.15,2013-06-24 18:04:00,
2013-06-24 14:10:00,83.2,71.1,29.97,SW,232,10.0,10.0,67,0.00,,,0.00,Wunderground v.1.15,2013-06-24 18:10:00,
2013-06-24 14:20:00,83.4,71.7,29.97,SW,229,9.0,9.0,68,0.00,,,0.00,Wunderground v.1.15,2013-06-24 18:20:00,
2013-06-24 14:25:00,83.1,72.7,29.97,WSW,249,8.0,11.0,71,0.00,,,0.00,Wunderground v.1.15,2013-06-24 18:25:00,
2013-06-24 14:34:00,84.1,73.3,29.97,SW,214,7.0,8.0,70,0.00,,,0.00,Wunderground v.1.15,2013-06-24 18:34:00,
2013-06-24 14:40:00,84.7,73.4,29.97,SW,219,6.0,6.0,69,0.00,,,0.00,Wunderground v.1.15,2013-06-24 18:40:00,
2013-06-24 14:45:00,84.8,73.5,29.96,SW,232,6.0,6.0,69,0.00,,,0.00,Wunderground v.1.15,2013-06-24 18:45:00,
2013-06-24 14:55:00,84.7,72.5,29.96,WSW,245,8.0,8.0,67,0.00,,,0.00,Wunderground v.1.15,2013-06-24 18:55:00,
2013-06-24 15:00:00,84.5,72.3,29.96,SW,227,9.0,9.0,67,0.00,,,0.00,Wunderground v.1.15,2013-06-24 19:00:00,
2013-06-24 15:05:00,85.0,73.3,29.95,South,187,8.0,9.0,68,0.00,,,0.00,Wunderground v.1.15,2013-06-24 19:05:00,
2013-06-24 15:14:00,85.1,73.3,29.95,WSW,250,7.0,8.0,68,0.00,,,0.00,Wunderground v.1.15,2013-06-24 19:14:00,
2013-06-24 15:20:00,84.5,71.4,29.95,WSW,245,8.0,8.0,65,0.00,,,0.00,Wunderground v.1.15,2013-06-24 19:20:00,
2013-06-24 15:30:00,84.3,71.2,29.94,SW,221,7.0,7.0,65,0.00,,,0.00,Wunderground v.1.15,2013-06-24 19:30:00,
2013-06-24 15:40:00,84.8,73.5,29.94,WSW,247,5.0,9.0,69,0.00,,,0.00,Wunderground v.1.15,2013-06-24 19:40:00,
2013-06-24 15:50:00,85.0,71.9,29.93,WSW,238,5.0,7.0,65,0.00,,,0.00,Wunderground v.1.15,2013-06-24 19:50:00,
2013-06-24 16:05:00,85.7,71.2,29.93,WSW,244,6.0,8.0,62,0.00,,,0.00,Wunderground v.1.15,2013-06-24 20:05:00,
2013-06-24 16:10:00,85.6,70.6,29.93,West,261,6.0,8.0,61,0.00,,,0.00,Wunderground v.1.15,2013-06-24 20:10:00,
2013-06-24 16:20:00,86.1,71.6,29.93,SW,215,5.0,5.0,62,0.00,,,0.00,Wunderground v.1.15,2013-06-24 20:20:00,
2013-06-24 16:35:00,85.9,71.4,29.92,WSW,253,7.0,11.0,62,0.00,,,0.00,Wunderground v.1.15,2013-06-24 20:35:00,
2013-06-24 16:45:00,86.0,72.4,29.92,SW,230,7.0,7.0,64,0.00,,,0.00,Wunderground v.1.15,2013-06-24 20:45:00,
2013-06-24 16:55:00,86.0,71.9,29.92,SW,234,7.0,10.0,63,0.00,,,0.00,Wunderground v.1.15,2013-06-24 20:55:00,
2013-06-24 17:04:00,86.2,72.1,29.92,SW,231,5.0,7.0,63,0.00,,,0.00,Wunderground v.1.15,2013-06-24 21:04:00,
2013-06-24 17:09:00,86.3,70.8,29.92,South,185,6.0,8.0,60,0.00,,,0.00,Wunderground v.1.15,2013-06-24 21:09:00,
2013-06-24 17:20:00,85.3,70.8,29.92,WSW,246,8.0,8.0,62,0.00,,,0.00,Wunderground v.1.15,2013-06-24 21:20:00,
2013-06-24 17:29:00,85.8,71.7,29.91,WSW,253,7.0,10.0,63,0.00,,,0.00,Wunderground v.1.15,2013-06-24 21:29:00,
2013-06-24 17:40:00,85.0,71.0,29.91,WSW,251,8.0,9.0,63,0.00,,,0.00,Wunderground v.1.15,2013-06-24 21:40:00,
2013-06-24 17:45:00,85.2,70.2,29.91,WSW,240,8.0,10.0,61,0.00,,,0.00,Wunderground v.1.15,2013-06-24 21:45:00,
2013-06-24 17:54:00,85.2,72.1,29.90,WSW,242,9.0,13.0,65,0.00,,,0.00,Wunderground v.1.15,2013-06-24 21:54:00,
2013-06-24 18:00:00,85.3,72.6,29.90,WSW,245,7.0,7.0,66,0.00,,,0.00,Wunderground v.1.15,2013-06-24 22:00:00,
2013-06-24 18:10:00,84.9,71.4,29.90,SW,218,6.0,8.0,64,0.00,,,0.00,Wunderground v.1.15,2013-06-24 22:10:00,
2013-06-24 18:20:00,85.1,72.0,29.90,WSW,256,7.0,9.0,65,0.00,,,0.00,Wunderground v.1.15,2013-06-24 22:20:00,
2013-06-24 18:29:00,85.0,71.5,29.90,SW,234,7.0,8.0,64,0.00,,,0.00,Wunderground v.1.15,2013-06-24 22:29:00,
2013-06-24 18:35:00,85.0,71.5,29.90,SW,214,7.0,8.0,64,0.00,,,0.00,Wunderground v.1.15,2013-06-24 22:35:00,
2013-06-24 18:45:00,85.0,70.5,29.90,WSW,245,7.0,7.0,62,0.00,,,0.00,Wunderground v.1.15,2013-06-24 22:45:00,
2013-06-24 18:55:00,84.7,70.7,29.90,SW,236,8.0,8.0,63,0.00,,,0.00,Wunderground v.1.15,2013-06-24 22:55:00,
2013-06-24 19:00:00,84.6,71.1,29.90,SW,234,7.0,7.0,64,0.00,,,0.00,Wunderground v.1.15,2013-06-24 23:00:00,
2013-06-24 19:10:00,83.8,71.2,29.91,WSW,241,5.0,5.0,66,0.00,,,0.00,Wunderground v.1.15,2013-06-24 23:10:00,
2013-06-24 19:20:00,83.8,71.2,29.90,SW,219,7.0,7.0,66,0.00,,,0.00,Wunderground v.1.15,2013-06-24 23:20:00,
2013-06-24 19:30:00,83.2,70.7,29.91,SW,235,7.0,9.0,66,0.00,,,0.00,Wunderground v.1.15,2013-06-24 23:30:00,
2013-06-24 19:35:00,83.0,71.3,29.91,SW,232,6.0,9.0,68,0.00,,,0.00,Wunderground v.1.15,2013-06-24 23:35:00,
2013-06-24 19:45:00,83.3,69.8,29.90,WSW,241,5.0,10.0,64,0.00,,,0.00,Wunderground v.1.15,2013-06-24 23:45:00,
2013-06-24 19:55:00,83.2,70.7,29.90,SW,217,6.0,6.0,66,0.00,,,0.00,Wunderground v.1.15,2013-06-24 23:55:00,
2013-06-24 20:00:00,83.3,71.2,29.91,SW,221,5.0,5.0,67,0.00,,,0.00,Wunderground v.1.15,2013-06-25 00:00:00,
2013-06-24 20:09:00,83.4,70.4,29.91,WSW,252,6.0,8.0,65,0.00,,,0.00,Wunderground v.1.15,2013-06-25 00:09:00,
2013-06-24 20:15:00,83.3,70.8,29.91,WSW,256,6.0,8.0,66,0.00,,,0.00,Wunderground v.1.15,2013-06-25 00:15:00,
2013-06-24 20:25:00,83.0,70.9,29.91,WSW,252,5.0,7.0,67,0.00,,,0.00,Wunderground v.1.15,2013-06-25 00:25:00,
2013-06-24 20:35:00,82.4,70.3,29.90,SW,223,5.0,6.0,67,0.00,,,0.00,Wunderground v.1.15,2013-06-25 00:35:00,
2013-06-24 20:45:00,81.9,69.9,29.90,SW,235,5.0,5.0,67,0.00,,,0.00,Wunderground v.1.15,2013-06-25 00:45:00,
2013-06-24 20:54:00,81.6,70.0,29.90,SSW,212,5.0,7.0,68,0.00,,,0.00,Wunderground v.1.15,2013-06-25 00:54:00,
2013-06-24 21:00:00,81.5,69.9,29.89,SW,215,6.0,6.0,68,0.00,,,0.00,Wunderground v.1.15,2013-06-25 01:00:00,
2013-06-24 21:10:00,81.4,69.8,29.90,SW,230,7.0,7.0,68,0.00,,,0.00,Wunderground v.1.15,2013-06-25 01:10:00,
2013-06-24 21:24:00,80.6,69.9,29.90,SW,217,5.0,5.0,70,0.00,,,0.00,Wunderground v.1.15,2013-06-25 01:24:00,
2013-06-24 21:35:00,80.3,69.6,29.90,SW,221,5.0,6.0,70,0.00,,,0.00,Wunderground v.1.15,2013-06-25 01:35:00,
2013-06-24 21:44:00,80.0,69.7,29.90,SSW,211,5.0,6.0,71,0.00,,,0.00,Wunderground v.1.15,2013-06-25 01:44:00,
2013-06-24 21:50:00,79.7,69.5,29.90,SW,223,5.0,5.0,71,0.00,,,0.00,Wunderground v.1.15,2013-06-25 01:50:00,
2013-06-24 22:00:00,79.7,69.5,29.91,SW,221,6.0,7.0,71,0.00,,,0.00,Wunderground v.1.15,2013-06-25 02:00:00,
2013-06-24 22:09:00,79.6,69.4,29.91,SW,223,6.0,6.0,71,0.00,,,0.00,Wunderground v.1.15,2013-06-25 02:09:00,
2013-06-24 22:15:00,79.5,69.3,29.91,SW,223,6.0,6.0,71,0.00,,,0.00,Wunderground v.1.15,2013-06-25 02:15:00,
2013-06-24 22:24:00,79.2,69.0,29.91,SW,219,5.0,5.0,71,0.00,,,0.00,Wunderground v.1.15,2013-06-25 02:24:00,
2013-06-24 22:30:00,79.1,68.9,29.91,SSW,209,5.0,6.0,71,0.00,,,0.00,Wunderground v.1.15,2013-06-25 02:30:00,
2013-06-24 22:40:00,79.1,68.9,29.91,SW,230,6.0,6.0,71,0.00,,,0.00,Wunderground v.1.15,2013-06-25 02:40:00,
2013-06-24 22:49:00,79.1,68.5,29.91,SW,217,6.0,9.0,70,0.00,,,0.00,Wunderground v.1.15,2013-06-25 02:49:00,
2013-06-24 22:55:00,79.1,68.5,29.91,SW,232,6.0,10.0,70,0.00,,,0.00,Wunderground v.1.15,2013-06-25 02:55:00,
2013-06-24 23:00:00,79.1,68.5,29.91,SSW,207,6.0,6.0,70,0.00,,,0.00,Wunderground v.1.15,2013-06-25 03:00:00,
2013-06-24 23:10:00,78.9,68.3,29.90,SW,215,6.0,6.0,70,0.00,,,0.00,Wunderground v.1.15,2013-06-25 03:10:00,
2013-06-24 23:20:00,78.9,68.7,29.91,SW,217,5.0,7.0,71,0.00,,,0.00,Wunderground v.1.15,2013-06-25 03:20:00,
2013-06-24 23:29:00,78.9,68.7,29.91,SW,226,6.0,6.0,71,0.00,,,0.00,Wunderground v.1.15,2013-06-25 03:29:00,
2013-06-24 23:35:00,79.0,68.8,29.91,SSW,207,5.0,6.0,71,0.00,,,0.00,Wunderground v.1.15,2013-06-25 03:35:00,
2013-06-24 23:45:00,78.9,68.7,29.92,SW,226,7.0,13.0,71,0.00,,,0.00,Wunderground v.1.15,2013-06-25 03:45:00,
2013-06-24 23:50:00,76.6,69.6,29.92,WSW,254,10.0,10.0,79,0.41,,,0.06,Wunderground v.1.15,2013-06-25 03:50:00,